CAPE
9 505 272 349 286 146 180 117 55 42 0 12 5 22 34 42 33 39 25 52 94 73 22 1 0 0 0 0 0 0 0 0
66 375 306 282 230 40 43 58 48 25 13 4 4 1 8 1 4 6 0 5 0 64 10 0 0 0 0 0 0 0 0 0
0 221 187 125 125 17 37 37 66 22 7 0 0 0 0 0 0 0 0 0 0 29 0 0 0 0 0 0 0 0 0 0
175 294 191 66 124 33 110 46 44 31 3 0 0 0 0 0 0 0 0 0 0 0 0 0 2 0 0 0 0 0 0 0
57 230 232 197 78 147 129 46 27 35 2 0 0 0 0 0 0 0 0 0 0 0 0 0 0 0 0 0 0 0 0 0
11 145 346 214 171 193 122 30 50 10 2 0 0 0 0 0 0 0 0 0 0 0 0 0 0 0 0 0 0 0 0 0
129 134 219 308 275 195 87 73 55 3 0 0 0 0 0 0 0 0 0 0 0 0 0 0 0 0 0 0 0 0 0 0
5 1 59 345 303 236 138 84 57 2 0 0 0 0 0 0 0 0 0 0 0 0 0 0 0 0 0 0 0 0 0 0
129 55 136 395 245 239 147 100 53 0 0 0 0 0 0 0 0 0 0 0 0 0 0 0 0 0 0 0 0 0 0 0
236 219 189 145 139 185 152 106 55 22 0 0 0 0 0 0 0 0 0 0 0 0 0 0 0 0 0 0 0 0 0 0
194 237 161 219 142 174 153 97 63 26 1 0 0 0 0 0 0 0 0 0 0 0 0 0 0 0 0 0 0 0 0 0
97 38 0 94 38 170 132 72 19 0 2 0 0 0 0 0 0 0 0 0 0 0 0 0 0 0 0 0 0 0 0 0
171 200 213 92 211 221 133 56 27 0 0 0 0 0 0 0 0 0 0 0 0 0 0 0 0 0 0 0 0 0 0 0
87 47 85 149 416 342 144 84 37 14 0 0 0 0 0 0 0 0 0 0 0 0 0 0 0 0 0 0 0 0 0 0
9 0 1 10 230 329 172 108 38 27 0 0 0 0 0 0 0 0 0 0 0 0 0 0 0 0 0 0 0 0 0 0
60 12 0 9 292 276 203 119 27 33 2 0 0 0 0 0 0 0 0 0 0 0 0 0 0 0 0 0 0 0 0 0
151 310 123 119 187 117 168 183 69 26 0 0 0 0 0 0 0 0 0 0 0 0 0 0 0 0 0 0 0 0 0 0
3 44 161 91 127 167 158 156 138 87 25 0 0 0 0 0 0 0 0 0 0 0 0 0 0 0 0 0 0 0 0 0
2 1 0 71 112 146 191 154 130 54 0 0 0 0 0 0 0 0 0 0 0 0 0 0 0 0 0 0 0 0 0 0
CIN
-48 -29 -57 -35 -99 -73 -84 -113 -88 -121 -0 -116 -35 -54 -138 -128 -115 -98 -63 -41 -22 -41 -56 -17 -0 -0 -0 -0 -0 -0 -0 -0
-94 -19 -44 -48 -83 -107 -97 -123 -86 -121 -162 -23 -22 -3 -33 -25 -187 -203 -0 -123 -0 -35 -42 -0 -0 -0 -0 -0 -0 -0 -0 -0
-0 -12 -37 -51 -115 -157 -111 -114 -99 -123 -24 -0 -0 -0 -0 -0 -0 -0 -0 -0 -0 -56 -0 -0 -0 -0 -0 -0 -0 -0 -0 -0
-19 -11 -31 -13 -75 -128 -101 -146 -129 -110 -20 -0 -0 -0 -0 -0 -0 -0 -0 -0 -0 -0 -0 -0 -50 -0 -0 -0 -0 -0 -0 -0
-37 -19 -33 -25 -93 -75 -110 -155 -106 -89 -16 -0 -0 -0 -0 -0 -0 -0 -0 -0 -0 -0 -0 -0 -0 -0 -0 -0 -0 -0 -0 -0
-123 -1 -34 -41 -73 -50 -126 -105 -81 -72 -15 -0 -0 -0 -0 -0 -0 -0 -0 -0 -0 -0 -0 -0 -0 -0 -0 -0 -0 -0 -0 -0
-156 -100 -4 -11 -41 -47 -90 -81 -74 -29 -0 -0 -0 -0 -0 -0 -0 -0 -0 -0 -0 -0 -0 -0 -0 -0 -0 -0 -0 -0 -0 -0
-76 -178 -7 -0 -25 -44 -45 -94 -57 -47 -0 -0 -0 -0 -0 -0 -0 -0 -0 -0 -0 -0 -0 -0 -0 -0 -0 -0 -0 -0 -0 -0
-127 -131 -26 -1 -40 -58 -53 -75 -52 -0 -0 -0 -0 -0 -0 -0 -0 -0 -0 -0 -0 -0 -0 -0 -0 -0 -0 -0 -0 -0 -0 -0
-109 -128 -80 -77 -31 -96 -86 -112 -80 -96 -0 -0 -0 -0 -0 -0 -0 -0 -0 -0 -0 -0 -0 -0 -0 -0 -0 -0 -0 -0 -0 -0
-102 -123 -104 -30 -21 -50 -127 -124 -125 -89 -84 -0 -0 -0 -0 -0 -0 -0 -0 -0 -0 -0 -0 -0 -0 -0 -0 -0 -0 -0 -0 -0
-173 -199 -4 -77 -32 -23 -117 -126 -119 -18 -91 -0 -0 -0 -0 -0 -0 -0 -0 -0 -0 -0 -0 -0 -0 -0 -0 -0 -0 -0 -0 -0
-180 -159 -59 -42 -5 -15 -49 -95 -149 -6 -0 -0 -0 -0 -0 -0 -0 -0 -0 -0 -0 -0 -0 -0 -0 -0 -0 -0 -0 -0 -0 -0
-234 -150 -108 -67 -1 -1 -55 -107 -157 -153 -0 -0 -0 -0 -0 -0 -0 -0 -0 -0 -0 -0 -0 -0 -0 -0 -0 -0 -0 -0 -0 -0
-305 -0 -131 -116 -1 -12 -77 -100 -164 -146 -0 -0 -0 -0 -0 -0 -0 -0 -0 -0 -0 -0 -0 -0 -0 -0 -0 -0 -0 -0 -0 -0
-243 -258 -0 -64 -1 -7 -55 -61 -105 -127 -145 -0 -0 -0 -0 -0 -0 -0 -0 -0 -0 -0 -0 -0 -0 -0 -0 -0 -0 -0 -0 -0
-42 -44 -205 -183 -74 -64 -23 -34 -53 -119 -3 -0 -0 -0 -0 -0 -0 -0 -0 -0 -0 -0 -0 -0 -0 -0 -0 -0 -0 -0 -0 -0
-0 -18 -47 -129 -126 -112 -62 -93 -104 -150 -202 -0 -0 -0 -0 -0 -0 -0 -0 -0 -0 -0 -0 -0 -0 -0 -0 -0 -0 -0 -0 -0
-0 -0 -0 -22 -46 -71 -84 -98 -126 -163 -0 -0 -0 -0 -0 -0 -0 -0 -0 -0 -0 -0 -0 -0 -0 -0 -0 -0 -0 -0 -0 -0
Wind_Speed
41 32 29 27 25 22 18 16 13 11 8 7 8 2 7 7 4 3 3 6 8 8 8 10 10 12 12 13 16 17 17 17
30 27 32 28 26 24 20 18 16 13 9 9 7 6 6 7 2 3 2 4 5 8 9 10 12 11 12 14 16 16 15 17
28 38 32 28 30 25 21 20 17 14 10 8 7 7 4 6 2 1 2 3 4 9 10 10 11 11 14 14 15 14 15 15
34 25 31 30 29 27 23 21 18 15 11 10 7 6 4 3 4 2 0 2 2 7 10 9 9 12 15 14 14 14 14 13
32 25 30 33 29 26 23 21 19 15 13 11 10 8 8 7 5 2 1 1 2 7 7 8 11 13 15 14 13 12 13 14
38 30 31 32 30 28 24 22 19 17 14 11 11 10 8 6 4 3 2 2 2 5 7 11 14 14 13 14 14 13 14 12
31 25 39 31 29 28 24 22 20 17 13 13 13 14 10 8 6 6 4 4 3 2 11 13 13 13 13 14 14 14 14 12
29 28 38 32 30 28 26 23 22 17 13 15 15 13 11 10 9 8 8 7 6 6 10 12 12 13 13 14 15 13 11 10
32 28 41 31 30 29 27 24 23 17 15 16 15 14 12 9 8 9 10 8 7 5 7 8 11 13 13 15 14 12 9 9
32 31 29 30 27 29 28 24 24 19 15 17 15 17 13 10 9 9 10 7 6 6 5 6 8 11 13 14 13 11 8 7
35 33 30 35 47 32 28 26 23 19 18 19 18 18 14 10 9 11 11 8 7 7 6 8 6 7 8 10 10 9 9 7
30 26 27 36 52 32 27 25 22 20 20 19 19 20 15 12 11 11 10 9 10 8 9 9 7 7 7 7 8 8 8 7
21 21 23 30 43 28 25 26 23 20 19 22 19 18 15 14 12 10 11 11 9 9 9 8 8 8 9 8 8 7 7 7
20 24 28 28 33 29 25 27 25 21 21 24 21 18 15 15 13 11 11 9 8 8 9 9 9 9 10 8 8 8 8 8
18 23 28 31 32 34 31 26 25 22 22 25 21 19 17 16 14 12 11 10 9 8 9 9 8 9 9 9 9 8 8 8
18 23 17 28 31 36 28 27 23 23 21 25 24 22 18 17 15 12 11 11 9 8 9 8 8 8 8 8 9 8 7 8
23 29 24 25 28 27 30 28 25 21 22 25 23 22 19 17 16 13 12 11 10 9 9 9 9 5 8 9 8 7 7 8
12 20 29 28 28 25 27 25 25 27 24 22 27 22 19 18 17 14 13 12 10 10 9 8 8 5 9 10 9 7 7 7
15 16 19 29 30 29 27 25 24 25 24 21 24 21 20 18 16 15 14 12 12 11 10 9 7 6 9 10 9 6 6 6
Wind_Direction
229 217 214 210 199 193 191 199 192 183 173 147 130 62 117 113 102 80 86 90 96 89 90 98 100 102 91 88 90 88 84 76
245 224 217 206 200 197 197 191 193 180 191 162 159 136 118 108 116 99 90 86 51 110 104 101 109 106 101 101 99 93 83 82
239 230 214 201 203 196 195 196 190 191 193 181 165 145 126 116 137 76 100 103 52 118 115 114 111 100 111 108 106 90 90 91
237 210 215 202 205 201 201 196 194 200 187 171 169 149 135 219 243 281 53 105 81 121 123 117 110 109 117 111 110 104 105 99
232 207 215 213 204 208 197 192 195 197 185 183 183 199 182 225 233 251 278 99 107 119 117 111 119 116 121 120 116 111 106 116
229 234 214 209 211 208 202 194 197 199 197 191 182 191 204 197 209 180 139 111 90 113 119 120 119 117 121 121 118 119 117 111
225 215 224 213 208 209 202 197 197 196 197 182 181 173 190 192 186 159 148 139 128 115 124 124 120 118 123 129 124 122 127 113
223 219 232 213 209 208 206 202 199 196 196 182 173 188 193 188 164 152 148 144 147 133 126 124 124 124 127 132 136 125 122 115
223 221 232 217 204 206 206 206 197 200 201 190 179 199 200 189 174 156 152 145 147 144 131 119 130 129 128 136 136 129 104 90
220 225 224 211 207 201 201 201 197 203 195 188 193 208 201 189 171 160 152 158 155 141 132 119 112 129 131 135 137 132 119 93
220 224 226 235 230 215 205 202 196 204 182 197 206 209 208 191 175 161 154 157 151 142 138 132 122 112 114 123 123 114 114 100
225 225 233 228 227 213 208 200 202 187 176 188 202 213 209 188 174 163 160 153 143 139 134 132 131 130 125 119 118 115 109 100
218 221 224 224 221 209 209 202 201 189 187 203 199 208 209 202 187 181 161 150 144 138 134 131 129 128 128 125 123 121 116 110
214 222 224 224 219 213 203 205 203 195 195 214 209 209 194 183 191 179 167 158 154 145 138 136 133 132 130 125 124 121 118 115
204 224 238 224 217 216 214 201 202 198 204 213 205 205 200 199 201 189 178 167 162 155 146 141 137 135 132 128 126 124 117 116
195 220 225 210 219 220 218 212 198 202 204 209 210 215 206 209 203 198 189 174 176 168 154 148 143 140 138 135 134 130 125 122
236 229 220 212 217 218 218 217 212 208 210 208 209 209 201 203 210 201 192 186 184 173 170 162 156 152 148 145 141 135 133 132
261 242 234 231 227 211 213 214 210 219 215 216 215 205 203 209 215 208 197 194 192 190 185 179 177 170 157 154 150 143 145 142
274 270 254 240 227 224 222 211 212 217 216 207 207 206 213 210 203 204 207 205 193 192 197 199 195 185 167 163 159 155 158 159